Location: Regona
(45.2000°N, 9.8167°E)
Time: 19:54:05
(UTC+00:00)

Helios 1B rocket - Pass Details

Date: 07 June 2020
Orbit: 575 x 583 km, 98.1° (Epoch: 04 July)

Event Time Altitude Azimuth Distance (km) Brightness Sun altitude
Rises 00:43:20 0° 2° (N) 2,817 7.3 -19.4°
Reaches altitude 10° 00:45:46 10° 349° (N) 1,912 5.9 -19.2°
Maximum altitude 00:49:10 25° 294° (WNW) 1,184 4.0 -19.0°
Enters shadow 00:50:29 21° 264° (W) 1,315 4.0 -18.9°
